Showing default

KUIPER-00030, 63743

Orbit data source: Space-Track

KUIPER-00030, 63743 is a payload satellite owned by Kuiper Systems (US) in LEO that was launched on Mon, 28 Apr 2025 UTC via an ATLAS V 551 launch vehicle from the Air Force Eastern Test Range (AFETR). Payload-class satellites include a variety of spacecraft equipped with specific instruments for various scientific and technological missions. These include communications satellites like Starlink; space stations such as the ISS; scientific satellites like the Hubble; Earth observation satellites from companies like Planet Labs, Umbra, and HawkEye 360; GPS; miniature CubeSats for education and research; and military/defense satellites.

Loading next visibility...
Identifier
63743, 2025-088V
Orbit
LEO
Country
Flag of USUS
Related business
Manufacturer
Kuiper Systems
Mission
Operational Commercial Communications
Bus & Motor
KUIPER, Unknown motor
Mass
~490 kg wet, ~490 kg dry
Launch date (UTC)
2025-04-28 (1 year ago)
Launch vehicle
ATLAS V 551
Launch site
Air Force Eastern Test Range (AFETR)
Object type
Payload
Rocket body
Debris
Shape & HBR
Box + 2 Pan, 3.4 m
Radar Cross Section
2.326 m², Large (>1 m²)

Expand to show TLE details & history
Last TLE update: 14 hours ago

TLE from 14 hours ago
0 KUIPER-00030
1 63743U 25088V   26171.28955009  .00000652  00000-0  11460-3 0  9999
2 63743  51.9020  16.8592 0000622  99.8709 260.2323 14.79922661 62828
Epoch: 2026-06-20T06:56Z
TLE epoch observation values (Epoch: 2026-06-20T06:56:57.127Z)
Latitude
-0.00008°
Longitude
4.1148°
Altitude
630.389 km
Speed
7.544 km/s
True Right ascension
01h 07m 26s
True Declination
0° 00' 00"
Sunlit
Object was in daylight at epoch
Visualization orbit readout
Latitude
Unknown
Longitude
Unknown
Altitude
Unknown
Speed
Unknown
Apparent Right ascension
Unknown
Apparent Declination
Unknown
Sunlit
N/A
Visualization observer readout
Local Sidereal Time
07:24:27
Azimuth
Unknown
Elevation
Unknown
Doppler factor
Unknown
Orbital elements
Apogee altitude
630.455 km
Perigee altitude
629.583 km
Semi-major axis
7,008.156 km
Eccentricity
0.00006
Inclination
51.902°
RAAN
16.8592°
Arg. of periapsis
99.8709°
True anomaly
260.22528°
Mean anomaly
260.2323°
Eccentric anomaly
260.22879°
Mean motion
3.69945 °/min
Orbital period
97.31 mins
BSTAR
0.0001146
Loading maneuver chart data...
Computing Atmospheric mass density...
Loading historical data...
Loading historical data...
Loading historical data...
Loading historical data...
Loading historical data...
Loading historical data...
Loading historical data...

Documentation

Showing up to 5 results
|